SCP
0 0 0 0 0 0 0 0 0 0 0 0 0 0 0 0 0 0 0 0 0 0 0 0 0 0 0 0 0 0 0 0 0 0 0 0 0 0 0 0 0 0 0
0 0 0 0 0 0 0 0 0 0 0 0 0 0 0 0 0 0 0 0 0 0 0 0 0 0 0 0 0 0 0 0 0 0 0 0 0 0 0 0 0 0 0
0 0 0 0 0 0 0 0 0 0 0 0 0 0 0 0 0 0 0 0 0 0 0 0 0 0 0 0 0 0 0 0 0 0 0 0 0 0 0 0 0 0 0
0 0 0 0 0 0 0 0 0 0 0 0 0 0 0 0 0 0 0 0 0 0 0 0 0 0 0 0 0 0 0 0 0 0 0 0 0 0 0 0 0 0 0
0 0 0 0 0 0 0 0 0 0 0 0 0 0 0 0 0 0 0 0 0 0 0 0 0 0 0 0 0 0 0 0 0 0 0 0 0 0 0 0 0 0 0
0 0 0 0 0 0 0 0 0 0 0 0 0 0 0 0 0 0 0 0 0 0 0 0 0 0 0 0 0 0 0 0 0 0 0 0 0 0 0 0 0 0 0
0 0 0 0 0 0 0 0 0 0 0 0 0 0 0 0 0 0 0 0 0 0 0 0 0 0 0 0 0 0 0 0 0 0 0 0 0 0 0 0 0 0 0
0 0 0 0 0 0 0 0 0 0 0 0 0 0 0 0 0 0 0 0 0 0 0 0 0 0 0 0 0 0 0 0 0 0 0 0 0 0 0 0 0 0 0
0 0 0 0 0 0 0 0 0 0 0 0 0 0 0 0 0 0 0 0 0 0 0 0 0 0 0 0 0 0 0 0 0 0 0 0 0 0 0 0 0 0 0
0 0 0 0 0 0 0 0 0 0 0 0 0 0 0 0 0 0 0 0 0 0 0 0 0 0 0 0 0 0 0 0 0 0 0 0 0 0 0 0 0 0 0
0 0 0 0 0 0 0 0 0 0 0 0 0 0 0 0 0 0 0 0 0 0 0 0 0 0 0 0 0 0 0 0 0 0 0 0 0 0 0 0 0 0 0
0 0 0 0 0 0 0 0 0 0 0 0 0 0 0 0 0 0 0 0 0 0 0 0 0 0 0 0 0 0 0 0 0 0 0 0 0 0 0 0 0 0 0
0 0 0 0 0 0 0 0 0 0 0 0 0 0 0 0 0 0 0 0 0 0 0 0 0 0 0 0 0 0 0 0 0 0 0 0 0 0 0 0 0 0 0
0 0 0 0 0 0 0 0 0 0 0 0 0 0 0 0 0 0 0 0 0 0 0 0 0 0 0 0 0 0 0 0 0 0 0 0 0 0 0 0 0 0 0
0 0 0 0 0 0 0 0 0 0 0 0 0 0 0 0 0 0 0 0 0 0 0 0 0 0 0 0 0 0 0 0 0 0 0 0 0 0 0 0 0 0 0
0 0 0 0 0 0 0 0 0 0 0 0 0 0 -0 -0 -0 -0 0 0 0 0 0 0 0 0 0 0 0 0 0 0 0 0 0 0 0 0 0 0 0 0 0
0 0 0 0 0 0 0 0 0 0 0 0 0 0 0 0 -0 0 0 -0 -0 -0 -0 0 0 0 0 0 0 0 0 0 0 0 0 0 0 0 0 0 0 0 0
0 0 0 0 0 0 0 0 0 0 0 0 0 0 0 0 -0 -0 -0 -0 -0 -0 -0 0 0 0 0 0 0 0 0 0 0 0 0 0 0 0 0 0 0 0 0
0 0 0 0 0 0 0 0 0 0 0 0 0 -0 -0 -0 -0 -0 -0 -0 -0 -0 -0 -0 0 0 0 0 0 0 0 0 0 0 0 0 0 0 0 0 0 0 0
0 0 0 0 0 0 0 0 0 0 0 0 0 -0 -0 -0 -0 -0 -0 -0 -0 -0 0 0 0 0 0 0 0 0 0 0 0 0 0 0 0 0 0 0 0 0 0
0 0 0 0 0 0 0 0 0 0 -0 -0 -0 -0 -0 -0 -0 -0 -0 -0 0 0 0 0 0 0 0 0 0 0 0 0 0 0 0 0 0 0 0 0 0 0 0
0 0 0 0 0 0 0 0 -0 -0 -0 -0 -0 -0 -0 -0 -0 -0 0 0 0 0 0 0 0 0 0 0 0 0 0 0 0 0 0 0 0 0 0 0 0 0 0
0 0 0 0 0 0 -0 -0 -0 -0 -0 -0 -0 -0 -0 0 0 0 0 0 0 0 0 0 0 0 0 0 0 0 0 0 0 0 0 0 0 0 0 0 0 0 0
0 0 0 0 0 -0 -0 -0 -0 -0 0 0 0 0 0 0 0 0 0 0 0 0 0 0 0 0 0 0 0 0 0 0 0 0 0 0 0 0 0 0 0 0 0
0 0 0 0 0 0 0 0 0 0 0 0 0 0 0 0 0 0 0 0 0 0 0 0 0 0 0 0 0 0 0 0 0 0 0 0 0 0 0 0 0 0 0
0 0 0 0 0 0 0 0 0 0 0 0 0 0 0 0 0 0 0 0 0 0 0 0 0 0 0 0 0 0 0 0 0 0 0 0 0 0 0 0 0 0 0
Wind_Speed_500mb
50 51 52 53 55 57 57 57 58 57 56 58 57 58 59 59 60 63 65 65 66 65 65 66 65 63 63 62 63 64 64 65 73 72 67 64 61 54 47 43 38 37 36
25 28 31 34 39 45 47 48 50 53 55 57 60 62 63 64 64 67 69 69 69 69 67 68 67 64 66 63 65 67 66 62 64 67 60 59 54 48 43 38 35 35 33
10 10 12 16 22 25 30 34 39 44 49 53 58 62 63 65 65 68 71 71 71 71 69 69 68 65 67 64 64 64 62 59 58 60 60 54 51 46 40 35 30 28 32
11 9 5 4 7 11 16 21 27 33 39 43 48 53 57 60 64 67 69 72 72 72 71 70 68 67 65 62 60 59 58 58 58 58 56 51 49 46 41 32 28 26 37
11 7 3 1 6 10 15 20 24 30 34 39 43 46 50 54 56 60 64 67 69 70 70 69 69 66 64 62 61 57 55 57 58 58 55 53 48 43 39 35 28 36 33
14 10 7 5 6 10 13 17 21 25 29 34 38 42 46 50 52 53 56 61 63 65 67 66 65 63 62 61 60 59 56 55 57 53 53 52 45 40 37 33 31 34 32
9 8 9 10 12 15 17 20 22 25 28 30 33 36 39 42 45 48 49 53 58 60 61 62 62 60 58 58 56 57 57 54 54 51 51 48 42 37 35 36 35 36 31
7 10 13 15 16 18 20 23 25 27 30 32 33 36 38 39 41 43 45 48 53 54 57 59 58 58 54 53 51 52 54 55 53 51 48 44 41 36 37 34 33 34 43
6 9 12 15 18 21 23 26 28 30 32 33 35 36 38 37 40 42 43 45 48 50 49 51 52 53 49 48 48 47 48 50 49 49 45 41 38 38 38 34 31 42 37
9 12 16 19 22 26 29 31 33 35 36 35 33 34 34 34 34 35 38 43 46 45 41 40 40 44 44 44 45 42 46 46 44 44 42 40 39 40 35 32 38 38 28
14 16 18 20 23 26 28 30 32 34 35 35 34 32 31 31 29 29 32 36 39 40 39 34 29 31 35 37 38 39 38 35 36 36 35 36 36 35 33 37 36 27 25
15 16 17 18 21 22 22 23 25 26 27 29 31 29 29 30 33 33 34 36 36 36 34 33 29 26 26 27 30 30 29 33 33 35 33 34 38 33 46 34 28 25 24
11 10 10 11 12 13 14 16 20 25 29 32 36 38 37 34 32 33 35 37 37 34 26 29 31 29 25 23 22 23 28 29 31 33 36 34 35 44 33 30 26 23 21
2 2 6 6 10 13 17 21 23 26 31 34 36 37 39 39 39 38 36 34 29 24 20 21 27 28 26 22 21 25 29 31 34 34 29 35 43 33 30 27 25 23 23
7 8 8 10 12 15 18 23 27 30 33 35 37 38 41 44 45 43 40 33 26 20 21 23 26 25 23 22 22 26 28 31 32 28 29 36 30 30 28 26 23 21 26
9 11 13 15 18 20 23 25 28 29 28 29 32 34 34 35 38 39 34 28 24 26 26 28 29 29 29 28 28 29 29 30 30 29 35 33 31 29 26 24 19 25 29
18 19 22 23 25 27 28 28 27 27 29 33 35 36 36 38 37 37 34 31 29 27 27 27 27 28 28 28 27 28 28 29 31 35 35 30 26 25 22 22 24 29 31
25 26 27 29 30 31 32 34 36 38 40 42 42 43 44 41 38 36 36 33 33 33 32 32 33 34 33 33 30 29 31 33 32 30 26 24 25 22 22 23 28 31 31
29 30 31 31 32 32 34 35 35 37 41 43 43 44 47 46 44 42 41 41 38 34 33 32 31 32 34 31 25 22 24 24 23 22 22 22 21 20 21 25 29 30 30
30 29 29 30 31 31 32 32 34 37 37 39 41 43 42 42 45 45 44 42 40 38 37 34 32 29 27 25 23 21 18 15 16 18 18 17 17 20 23 28 30 29 28
28 28 28 29 30 31 31 31 32 33 35 37 39 40 41 41 42 42 41 40 39 38 37 36 33 28 25 25 23 19 16 16 18 20 19 17 20 25 26 28 28 27 27
27 27 28 29 29 28 29 29 30 31 32 33 33 35 36 38 41 42 39 36 36 34 33 34 36 35 29 29 29 26 23 23 24 25 26 24 25 25 26 27 27 26 27
27 28 27 26 25 25 24 24 24 24 25 26 27 28 32 34 35 36 36 35 35 36 32 34 31 34 31 32 32 31 33 33 27 24 24 25 26 26 27 28 26 26 26
24 22 20 18 16 15 14 14 15 16 17 20 24 28 31 33 37 39 40 40 39 36 33 35 35 36 37 37 36 30 36 27 21 20 18 22 24 26 27 29 29 29 29
21 17 13 9 6 3 4 6 10 14 18 22 26 30 35 39 42 44 44 46 46 45 44 42 41 39 40 34 28 25 24 30 26 33 29 29 29 28 29 30 33 33 30
19 15 12 9 8 9 11 14 16 19 23 27 32 37 40 44 47 49 51 52 50 51 51 48 48 46 45 41 38 34 31 29 32 35 32 30 32 34 35 36 35 34 31
Wind_Direction_500mb
232 238 244 246 248 249 252 256 260 262 263 266 269 271 272 272 272 272 274 275 274 275 275 276 277 276 275 273 271 270 268 266 265 274 274 275 277 280 283 284 285 288 299
229 239 246 249 250 253 258 263 265 267 268 269 270 271 272 273 273 273 274 275 275 275 277 275 276 275 274 274 272 272 272 271 271 275 278 279 282 284 283 285 287 291 304
173 201 226 240 250 257 262 265 267 268 269 270 271 273 275 275 274 274 274 274 275 276 276 276 278 275 275 275 275 275 276 275 272 272 275 280 282 282 280 281 283 299 307
118 124 150 202 250 265 271 274 276 277 277 277 278 278 278 278 278 277 276 276 276 277 278 278 278 277 278 278 276 276 274 272 271 270 271 274 274 275 273 267 267 288 292
105 105 100 320 295 291 290 287 286 285 285 285 285 285 286 285 285 284 283 282 280 279 278 277 278 279 280 281 278 276 273 270 268 268 269 270 271 273 270 262 263 290 281
93 84 64 27 341 318 313 309 307 303 300 298 298 296 293 292 292 290 288 286 283 280 279 278 277 277 278 279 279 278 272 268 267 267 269 269 273 270 264 259 284 280 278
70 45 20 1 348 339 332 327 323 317 314 311 309 305 303 301 298 295 293 289 287 284 280 278 277 277 279 279 278 274 272 269 266 267 266 268 268 264 259 262 279 277 283
6 352 346 343 339 335 330 327 325 323 321 320 318 315 312 310 304 300 295 290 287 285 283 282 279 279 279 280 278 272 269 268 268 268 268 266 262 258 251 266 278 280 297
344 342 341 340 339 337 334 333 331 328 326 324 322 320 317 316 311 308 302 296 292 291 289 284 282 280 282 281 278 275 270 266 263 263 262 259 255 249 250 272 274 293 292
332 331 330 329 329 330 329 329 329 327 326 325 325 324 322 322 318 313 308 305 304 303 298 292 286 286 284 282 281 276 271 271 268 265 261 255 249 248 257 267 283 289 272
307 309 311 315 320 322 324 325 327 328 328 329 333 337 339 338 336 336 332 326 320 313 309 302 292 289 287 284 281 275 277 275 269 262 257 249 249 247 268 266 284 267 254
280 287 296 304 310 316 324 331 336 343 349 353 357 2 356 353 349 348 341 335 328 322 316 310 306 298 294 287 274 272 271 268 261 256 250 250 249 257 262 269 262 247 229
258 279 298 320 341 354 1 10 12 16 14 11 9 8 4 357 349 344 343 339 333 324 311 299 311 309 296 288 275 262 257 257 256 251 251 252 255 262 264 253 244 227 223
133 86 60 44 43 37 28 25 21 19 16 13 10 8 4 1 358 356 348 341 339 339 343 339 333 330 326 311 283 269 265 259 254 252 255 254 261 260 250 242 231 219 227
104 102 77 60 53 45 38 34 31 29 25 22 19 14 13 11 9 3 358 357 354 9 17 7 359 0 349 329 305 288 278 273 266 260 255 262 260 253 239 226 214 212 215
112 107 101 89 76 67 60 54 50 48 39 32 27 22 22 18 15 13 11 9 26 36 30 19 9 357 345 331 316 301 291 282 277 267 268 267 257 243 222 217 208 212 205
118 108 99 94 88 83 81 80 75 65 53 49 43 37 31 27 26 23 20 24 30 31 25 19 6 354 345 338 328 314 301 294 292 282 274 258 242 223 220 203 207 211 203
116 110 105 100 97 92 87 82 77 71 65 58 51 44 40 36 32 28 24 27 23 19 13 2 351 344 339 330 320 310 303 297 287 279 258 241 223 223 208 210 213 206 199
117 114 109 104 98 91 86 81 75 69 64 59 53 48 43 37 34 30 25 22 17 6 358 352 346 341 336 331 327 321 309 297 280 254 234 230 233 221 221 216 209 206 202
122 116 113 109 104 99 93 85 77 70 63 55 47 42 36 29 29 27 23 19 15 12 10 10 6 3 0 357 355 343 326 298 266 242 240 239 236 230 222 214 214 209 204
130 127 122 116 109 100 93 86 77 67 58 49 42 35 28 24 21 18 14 11 9 5 1 360 355 351 353 358 356 346 329 305 280 269 263 263 247 233 224 218 214 209 208
135 127 119 111 102 96 86 77 67 59 53 45 39 31 25 21 17 12 8 4 0 354 351 349 343 339 338 342 335 326 319 312 299 286 277 264 252 238 230 224 216 208 204
128 123 117 110 101 90 81 70 59 47 37 28 20 11 8 4 360 356 352 347 342 338 334 336 333 337 337 336 335 330 318 307 291 273 264 258 252 247 236 226 221 213 207
140 132 123 113 100 84 67 48 31 15 360 351 344 340 336 335 332 329 323 321 324 326 324 323 321 320 315 313 314 307 322 321 314 298 262 249 246 235 230 226 222 216 211
152 146 139 131 124 85 18 353 332 324 322 319 317 317 318 318 316 315 314 314 314 310 304 301 300 303 308 310 313 303 310 301 308 300 280 256 242 232 231 228 223 220 217
180 183 192 211 243 267 283 290 297 305 310 313 314 314 314 313 313 314 314 313 310 308 305 301 294 293 289 289 289 285 283 287 292 290 276 253 241 240 238 232 228 226 227
Wind_Speed_850mb
50 51 52 53 55 57 57 57 58 57 56 58 57 58 59 59 60 63 65 65 66 65 65 66 65 63 63 62 63 64 64 65 73 72 67 64 61 54 47 43 38 37 36
25 28 31 34 39 45 47 48 50 53 55 57 60 62 63 64 64 67 69 69 69 69 67 68 67 64 66 63 65 67 66 62 64 67 60 59 54 48 43 38 35 35 33
10 10 12 16 22 25 30 34 39 44 49 53 58 62 63 65 65 68 71 71 71 71 69 69 68 65 67 64 64 64 62 59 58 60 60 54 51 46 40 35 30 28 32
11 9 5 4 7 11 16 21 27 33 39 43 48 53 57 60 64 67 69 72 72 72 71 70 68 67 65 62 60 59 58 58 58 58 56 51 49 46 41 32 28 26 37
11 7 3 1 6 10 15 20 24 30 34 39 43 46 50 54 56 60 64 67 69 70 70 69 69 66 64 62 61 57 55 57 58 58 55 53 48 43 39 35 28 36 33
14 10 7 5 6 10 13 17 21 25 29 34 38 42 46 50 52 53 56 61 63 65 67 66 65 63 62 61 60 59 56 55 57 53 53 52 45 40 37 33 31 34 32
9 8 9 10 12 15 17 20 22 25 28 30 33 36 39 42 45 48 49 53 58 60 61 62 62 60 58 58 56 57 57 54 54 51 51 48 42 37 35 36 35 36 31
7 10 13 15 16 18 20 23 25 27 30 32 33 36 38 39 41 43 45 48 53 54 57 59 58 58 54 53 51 52 54 55 53 51 48 44 41 36 37 34 33 34 43
6 9 12 15 18 21 23 26 28 30 32 33 35 36 38 37 40 42 43 45 48 50 49 51 52 53 49 48 48 47 48 50 49 49 45 41 38 38 38 34 31 42 37
9 12 16 19 22 26 29 31 33 35 36 35 33 34 34 34 34 35 38 43 46 45 41 40 40 44 44 44 45 42 46 46 44 44 42 40 39 40 35 32 38 38 28
14 16 18 20 23 26 28 30 32 34 35 35 34 32 31 31 29 29 32 36 39 40 39 34 29 31 35 37 38 39 38 35 36 36 35 36 36 35 33 37 36 27 25
15 16 17 18 21 22 22 23 25 26 27 29 31 29 29 30 33 33 34 36 36 36 34 33 29 26 26 27 30 30 29 33 33 35 33 34 38 33 46 34 28 25 24
11 10 10 11 12 13 14 16 20 25 29 32 36 38 37 34 32 33 35 37 37 34 26 29 31 29 25 23 22 23 28 29 31 33 36 34 35 44 33 30 26 23 21
2 2 6 6 10 13 17 21 23 26 31 34 36 37 39 39 39 38 36 34 29 24 20 21 27 28 26 22 21 25 29 31 34 34 29 35 43 33 30 27 25 23 23
7 8 8 10 12 15 18 23 27 30 33 35 37 38 41 44 45 43 40 33 26 20 21 23 26 25 23 22 22 26 28 31 32 28 29 36 30 30 28 26 23 21 26
9 11 13 15 18 20 23 25 28 29 28 29 32 34 34 35 38 39 34 28 24 26 26 28 29 29 29 28 28 29 29 30 30 29 35 33 31 29 26 24 19 25 29
18 19 22 23 25 27 28 28 27 27 29 33 35 36 36 38 37 37 34 31 29 27 27 27 27 28 28 28 27 28 28 29 31 35 35 30 26 25 22 22 24 29 31
25 26 27 29 30 31 32 34 36 38 40 42 42 43 44 41 38 36 36 33 33 33 32 32 33 34 33 33 30 29 31 33 32 30 26 24 25 22 22 23 28 31 31
29 30 31 31 32 32 34 35 35 37 41 43 43 44 47 46 44 42 41 41 38 34 33 32 31 32 34 31 25 22 24 24 23 22 22 22 21 20 21 25 29 30 30
30 29 29 30 31 31 32 32 34 37 37 39 41 43 42 42 45 45 44 42 40 38 37 34 32 29 27 25 23 21 18 15 16 18 18 17 17 20 23 28 30 29 28
28 28 28 29 30 31 31 31 32 33 35 37 39 40 41 41 42 42 41 40 39 38 37 36 33 28 25 25 23 19 16 16 18 20 19 17 20 25 26 28 28 27 27
27 27 28 29 29 28 29 29 30 31 32 33 33 35 36 38 41 42 39 36 36 34 33 34 36 35 29 29 29 26 23 23 24 25 26 24 25 25 26 27 27 26 27
27 28 27 26 25 25 24 24 24 24 25 26 27 28 32 34 35 36 36 35 35 36 32 34 31 34 31 32 32 31 33 33 27 24 24 25 26 26 27 28 26 26 26
24 22 20 18 16 15 14 14 15 16 17 20 24 28 31 33 37 39 40 40 39 36 33 35 35 36 37 37 36 30 36 27 21 20 18 22 24 26 27 29 29 29 29
21 17 13 9 6 3 4 6 10 14 18 22 26 30 35 39 42 44 44 46 46 45 44 42 41 39 40 34 28 25 24 30 26 33 29 29 29 28 29 30 33 33 30
19 15 12 9 8 9 11 14 16 19 23 27 32 37 40 44 47 49 51 52 50 51 51 48 48 46 45 41 38 34 31 29 32 35 32 30 32 34 35 36 35 34 31
Wind_Direction_850mb
232 238 244 246 248 249 252 256 260 262 263 266 269 271 272 272 272 272 274 275 274 275 275 276 277 276 275 273 271 270 268 266 265 274 274 275 277 280 283 284 285 288 299
229 239 246 249 250 253 258 263 265 267 268 269 270 271 272 273 273 273 274 275 275 275 277 275 276 275 274 274 272 272 272 271 271 275 278 279 282 284 283 285 287 291 304
173 201 226 240 250 257 262 265 267 268 269 270 271 273 275 275 274 274 274 274 275 276 276 276 278 275 275 275 275 275 276 275 272 272 275 280 282 282 280 281 283 299 307
118 124 150 202 250 265 271 274 276 277 277 277 278 278 278 278 278 277 276 276 276 277 278 278 278 277 278 278 276 276 274 272 271 270 271 274 274 275 273 267 267 288 292
105 105 100 320 295 291 290 287 286 285 285 285 285 285 286 285 285 284 283 282 280 279 278 277 278 279 280 281 278 276 273 270 268 268 269 270 271 273 270 262 263 290 281
93 84 64 27 341 318 313 309 307 303 300 298 298 296 293 292 292 290 288 286 283 280 279 278 277 277 278 279 279 278 272 268 267 267 269 269 273 270 264 259 284 280 278
70 45 20 1 348 339 332 327 323 317 314 311 309 305 303 301 298 295 293 289 287 284 280 278 277 277 279 279 278 274 272 269 266 267 266 268 268 264 259 262 279 277 283
6 352 346 343 339 335 330 327 325 323 321 320 318 315 312 310 304 300 295 290 287 285 283 282 279 279 279 280 278 272 269 268 268 268 268 266 262 258 251 266 278 280 297
344 342 341 340 339 337 334 333 331 328 326 324 322 320 317 316 311 308 302 296 292 291 289 284 282 280 282 281 278 275 270 266 263 263 262 259 255 249 250 272 274 293 292
332 331 330 329 329 330 329 329 329 327 326 325 325 324 322 322 318 313 308 305 304 303 298 292 286 286 284 282 281 276 271 271 268 265 261 255 249 248 257 267 283 289 272
307 309 311 315 320 322 324 325 327 328 328 329 333 337 339 338 336 336 332 326 320 313 309 302 292 289 287 284 281 275 277 275 269 262 257 249 249 247 268 266 284 267 254
280 287 296 304 310 316 324 331 336 343 349 353 357 2 356 353 349 348 341 335 328 322 316 310 306 298 294 287 274 272 271 268 261 256 250 250 249 257 262 269 262 247 229
258 279 298 320 341 354 1 10 12 16 14 11 9 8 4 357 349 344 343 339 333 324 311 299 311 309 296 288 275 262 257 257 256 251 251 252 255 262 264 253 244 227 223
133 86 60 44 43 37 28 25 21 19 16 13 10 8 4 1 358 356 348 341 339 339 343 339 333 330 326 311 283 269 265 259 254 252 255 254 261 260 250 242 231 219 227
104 102 77 60 53 45 38 34 31 29 25 22 19 14 13 11 9 3 358 357 354 9 17 7 359 0 349 329 305 288 278 273 266 260 255 262 260 253 239 226 214 212 215
112 107 101 89 76 67 60 54 50 48 39 32 27 22 22 18 15 13 11 9 26 36 30 19 9 357 345 331 316 301 291 282 277 267 268 267 257 243 222 217 208 212 205
118 108 99 94 88 83 81 80 75 65 53 49 43 37 31 27 26 23 20 24 30 31 25 19 6 354 345 338 328 314 301 294 292 282 274 258 242 223 220 203 207 211 203
116 110 105 100 97 92 87 82 77 71 65 58 51 44 40 36 32 28 24 27 23 19 13 2 351 344 339 330 320 310 303 297 287 279 258 241 223 223 208 210 213 206 199
117 114 109 104 98 91 86 81 75 69 64 59 53 48 43 37 34 30 25 22 17 6 358 352 346 341 336 331 327 321 309 297 280 254 234 230 233 221 221 216 209 206 202
122 116 113 109 104 99 93 85 77 70 63 55 47 42 36 29 29 27 23 19 15 12 10 10 6 3 0 357 355 343 326 298 266 242 240 239 236 230 222 214 214 209 204
130 127 122 116 109 100 93 86 77 67 58 49 42 35 28 24 21 18 14 11 9 5 1 360 355 351 353 358 356 346 329 305 280 269 263 263 247 233 224 218 214 209 208
135 127 119 111 102 96 86 77 67 59 53 45 39 31 25 21 17 12 8 4 0 354 351 349 343 339 338 342 335 326 319 312 299 286 277 264 252 238 230 224 216 208 204
128 123 117 110 101 90 81 70 59 47 37 28 20 11 8 4 360 356 352 347 342 338 334 336 333 337 337 336 335 330 318 307 291 273 264 258 252 247 236 226 221 213 207
140 132 123 113 100 84 67 48 31 15 360 351 344 340 336 335 332 329 323 321 324 326 324 323 321 320 315 313 314 307 322 321 314 298 262 249 246 235 230 226 222 216 211
152 146 139 131 124 85 18 353 332 324 322 319 317 317 318 318 316 315 314 314 314 310 304 301 300 303 308 310 313 303 310 301 308 300 280 256 242 232 231 228 223 220 217
180 183 192 211 243 267 283 290 297 305 310 313 314 314 314 313 313 314 314 313 310 308 305 301 294 293 289 289 289 285 283 287 292 290 276 253 241 240 238 232 228 226 227